Time,TemperatureF,DewpointF,PressureIn,WindDirection,WindDirectionDegrees,WindSpeedMPH,WindSpeedGustMPH,Humidity,HourlyPrecipIn,Conditions,Clouds,dailyrainin,SoftwareType,DateUTC
2013-04-30 00:01:00,65.3,58.6,29.36,SSE,151,0.0,0.0,79,0.00,,CLR,0.00,VWS V14.01,2013-04-30 05:01:00,
2013-04-30 00:06:00,65.1,58.1,29.36,SSE,151,0.0,0.0,78,0.00,,CLR,0.00,VWS V14.01,2013-04-30 05:06:00,
2013-04-30 00:11:00,65.1,58.4,29.36,SSE,151,0.0,0.0,79,0.00,,CLR,0.00,VWS V14.01,2013-04-30 05:11:00,
2013-04-30 00:16:00,65.0,58.3,29.36,SSE,151,0.0,0.0,79,0.00,,CLR,0.00,VWS V14.01,2013-04-30 05:16:00,
2013-04-30 00:21:00,65.0,58.3,29.36,SSE,151,0.0,0.0,79,0.00,,CLR,0.00,VWS V14.01,2013-04-30 05:21:00,
2013-04-30 00:26:00,64.9,58.2,29.36,SSE,151,0.0,0.0,79,0.00,,CLR,0.00,VWS V14.01,2013-04-30 05:26:00,
2013-04-30 00:31:00,64.8,58.5,29.36,SSE,151,0.0,0.0,80,0.00,,CLR,0.00,VWS V14.01,2013-04-30 05:31:00,
2013-04-30 00:36:00,64.7,58.4,29.37,SSE,151,0.0,0.0,80,0.00,,CLR,0.00,VWS V14.01,2013-04-30 05:36:00,
2013-04-30 00:41:00,64.7,58.4,29.36,SSE,151,0.0,0.0,80,0.00,,CLR,0.00,VWS V14.01,2013-04-30 05:41:00,
2013-04-30 00:46:00,64.6,58.3,29.36,SSE,151,0.0,0.0,80,0.00,,CLR,0.00,VWS V14.01,2013-04-30 05:46:00,
2013-04-30 00:51:00,64.6,58.3,29.36,SSE,151,0.0,0.0,80,0.00,,CLR,0.00,VWS V14.01,2013-04-30 05:51:00,
2013-04-30 00:56:00,64.5,58.2,29.36,SSE,151,0.0,0.0,80,0.00,,CLR,0.00,VWS V14.01,2013-04-30 05:56:00,
2013-04-30 01:01:00,64.4,58.5,29.36,SSE,151,0.0,0.0,81,0.00,,CLR,0.00,VWS V14.01,2013-04-30 06:01:00,
2013-04-30 01:06:00,64.4,58.5,29.36,SSE,151,0.0,0.0,81,0.00,,CLR,0.00,VWS V14.01,2013-04-30 06:06:00,
2013-04-30 01:11:00,64.3,58.3,29.36,SSE,151,0.0,0.0,81,0.00,,CLR,0.00,VWS V14.01,2013-04-30 06:11:00,
2013-04-30 01:16:00,64.2,58.3,29.36,SSE,151,0.0,0.0,81,0.00,,CLR,0.00,VWS V14.01,2013-04-30 06:16:00,
2013-04-30 01:21:00,64.1,58.2,29.36,SSE,151,0.0,0.0,81,0.00,,CLR,0.00,VWS V14.01,2013-04-30 06:21:00,
2013-04-30 01:26:00,64.0,58.1,29.36,SSE,151,0.0,0.0,81,0.00,,CLR,0.00,VWS V14.01,2013-04-30 06:26:00,
2013-04-30 01:31:00,63.9,58.0,29.36,SSE,151,0.0,0.0,81,0.00,,CLR,0.00,VWS V14.01,2013-04-30 06:31:00,
2013-04-30 01:36:00,63.8,57.9,29.36,SSE,151,0.0,0.0,81,0.00,,CLR,0.00,VWS V14.01,2013-04-30 06:36:00,
2013-04-30 01:41:00,63.7,58.1,29.36,SSE,151,0.0,0.0,82,0.00,,CLR,0.00,VWS V14.01,2013-04-30 06:41:00,
2013-04-30 01:46:00,63.6,58.0,29.36,SSE,151,0.0,0.0,82,0.00,,CLR,0.00,VWS V14.01,2013-04-30 06:46:00,
2013-04-30 01:51:00,63.6,58.0,29.36,SSE,151,0.0,0.0,82,0.00,,CLR,0.00,VWS V14.01,2013-04-30 06:51:00,
2013-04-30 02:01:00,63.5,57.9,29.35,SSE,151,0.0,0.0,82,0.00,,CLR,0.00,VWS V14.01,2013-04-30 07:01:00,
2013-04-30 02:06:00,63.4,57.8,29.36,SSE,151,0.0,0.0,82,0.00,,CLR,0.00,VWS V14.01,2013-04-30 07:06:00,
2013-04-30 02:11:00,63.4,57.8,29.36,SSE,151,0.0,0.0,82,0.00,,CLR,0.00,VWS V14.01,2013-04-30 07:11:00,
2013-04-30 02:16:00,63.3,57.7,29.36,SSE,151,0.0,0.0,82,0.00,,CLR,0.00,VWS V14.01,2013-04-30 07:16:00,
2013-04-30 02:21:00,63.3,57.7,29.35,SSE,151,0.0,0.0,82,0.00,,CLR,0.00,VWS V14.01,2013-04-30 07:21:00,
2013-04-30 02:26:00,63.2,57.6,29.35,SSE,151,0.0,0.0,82,0.00,,CLR,0.00,VWS V14.01,2013-04-30 07:26:00,
2013-04-30 02:31:00,63.2,57.6,29.36,SSE,151,0.0,0.0,82,0.00,,CLR,0.00,VWS V14.01,2013-04-30 07:31:00,
2013-04-30 02:36:00,63.1,57.5,29.36,SSE,151,0.0,0.0,82,0.00,,CLR,0.00,VWS V14.01,2013-04-30 07:36:00,
2013-04-30 02:41:00,63.1,57.5,29.35,SSE,151,0.0,0.0,82,0.00,,CLR,0.00,VWS V14.01,2013-04-30 07:41:00,
2013-04-30 02:46:00,63.0,57.4,29.35,SSE,151,0.0,0.0,82,0.00,,CLR,0.00,VWS V14.01,2013-04-30 07:46:00,
2013-04-30 02:51:00,63.0,57.4,29.35,SSE,151,0.0,0.0,82,0.00,,CLR,0.00,VWS V14.01,2013-04-30 07:51:00,
2013-04-30 02:56:00,63.0,57.4,29.36,SSE,151,0.0,0.0,82,0.00,,CLR,0.00,VWS V14.01,2013-04-30 07:56:00,
2013-04-30 03:01:00,62.9,57.3,29.35,SSE,152,0.0,0.0,82,0.00,,CLR,0.00,VWS V14.01,2013-04-30 08:01:00,
2013-04-30 03:06:00,62.9,57.3,29.36,SSE,151,0.0,0.0,82,0.00,,CLR,0.00,VWS V14.01,2013-04-30 08:06:00,
2013-04-30 03:11:00,62.9,57.3,29.36,SSE,151,0.0,0.0,82,0.00,,CLR,0.00,VWS V14.01,2013-04-30 08:11:00,
2013-04-30 03:16:00,62.8,57.2,29.36,SSE,151,0.0,0.0,82,0.00,,CLR,0.00,VWS V14.01,2013-04-30 08:16:00,
2013-04-30 03:21:00,62.7,57.1,29.36,SSE,151,0.0,0.0,82,0.00,,CLR,0.00,VWS V14.01,2013-04-30 08:21:00,
2013-04-30 03:26:00,62.7,57.1,29.36,SSE,151,0.0,0.0,82,0.00,,CLR,0.00,VWS V14.01,2013-04-30 08:26:00,
2013-04-30 03:37:00,62.6,57.0,29.36,SSE,151,0.0,0.0,82,0.00,,CLR,0.00,VWS V14.01,2013-04-30 08:37:00,
2013-04-30 03:42:00,62.5,56.9,29.36,SSE,152,0.0,0.0,82,0.00,,CLR,0.00,VWS V14.01,2013-04-30 08:42:00,
2013-04-30 03:47:00,62.5,56.9,29.36,SSE,151,0.0,0.0,82,0.00,,CLR,0.00,VWS V14.01,2013-04-30 08:47:00,
2013-04-30 03:52:00,62.5,56.9,29.36,SSE,151,0.0,0.0,82,0.00,,CLR,0.00,VWS V14.01,2013-04-30 08:52:00,
2013-04-30 03:57:00,62.4,56.8,29.36,SSE,151,0.0,0.0,82,0.00,,CLR,0.00,VWS V14.01,2013-04-30 08:57:00,
2013-04-30 04:02:00,62.5,56.9,29.37,SSE,151,0.0,0.0,82,0.00,,CLR,0.00,VWS V14.01,2013-04-30 09:02:00,
2013-04-30 04:07:00,62.4,56.8,29.36,SSE,151,0.0,0.0,82,0.00,,CLR,0.00,VWS V14.01,2013-04-30 09:07:00,
2013-04-30 04:12:00,62.4,56.8,29.37,SSE,151,0.0,0.0,82,0.00,,CLR,0.00,VWS V14.01,2013-04-30 09:12:00,
2013-04-30 04:17:00,62.4,56.5,29.37,SSE,151,0.0,0.0,81,0.00,,CLR,0.00,VWS V14.01,2013-04-30 09:17:00,
2013-04-30 04:22:00,62.2,56.3,29.36,SSE,152,0.0,0.0,81,0.00,,CLR,0.00,VWS V14.01,2013-04-30 09:22:00,
2013-04-30 04:27:00,62.1,56.2,29.36,SSE,151,0.0,0.0,81,0.00,,CLR,0.00,VWS V14.01,2013-04-30 09:27:00,
2013-04-30 04:32:00,62.0,56.5,29.36,SSE,151,0.0,0.0,82,0.00,,CLR,0.00,VWS V14.01,2013-04-30 09:32:00,
2013-04-30 04:37:00,61.9,56.0,29.37,SSE,151,0.0,0.0,81,0.00,,CLR,0.00,VWS V14.01,2013-04-30 09:37:00,
2013-04-30 04:42:00,61.8,55.9,29.37,SSE,151,0.0,0.0,81,0.00,,CLR,0.00,VWS V14.01,2013-04-30 09:42:00,
2013-04-30 04:47:00,61.7,56.2,29.37,SSE,151,0.0,0.0,82,0.00,,CLR,0.00,VWS V14.01,2013-04-30 09:47:00,
2013-04-30 04:52:00,61.5,56.0,29.37,SSE,151,0.0,0.0,82,0.00,,CLR,0.00,VWS V14.01,2013-04-30 09:52:00,
2013-04-30 04:57:00,61.4,55.9,29.37,SSE,151,0.0,0.0,82,0.00,,CLR,0.00,VWS V14.01,2013-04-30 09:57:00,
2013-04-30 05:02:00,61.2,55.7,29.37,SSE,151,0.0,0.0,82,0.00,,CLR,0.00,VWS V14.01,2013-04-30 10:02:00,
2013-04-30 05:07:00,61.0,55.5,29.37,SSE,151,0.0,0.0,82,0.00,,CLR,0.00,VWS V14.01,2013-04-30 10:07:00,
2013-04-30 05:12:00,60.9,55.4,29.37,SSE,151,0.0,0.0,82,0.00,,CLR,0.00,VWS V14.01,2013-04-30 10:12:00,
2013-04-30 05:17:00,60.9,55.4,29.37,SSE,151,0.0,0.0,82,0.00,,CLR,0.00,VWS V14.01,2013-04-30 10:17:00,
2013-04-30 05:22:00,60.9,55.4,29.37,SSE,151,0.0,0.0,82,0.00,,CLR,0.00,VWS V14.01,2013-04-30 10:22:00,
2013-04-30 05:27:00,60.9,55.4,29.38,SSE,151,0.0,0.0,82,0.00,,CLR,0.00,VWS V14.01,2013-04-30 10:27:00,
2013-04-30 05:32:00,60.9,55.4,29.38,SSE,151,0.0,0.0,82,0.00,,CLR,0.00,VWS V14.01,2013-04-30 10:32:00,
2013-04-30 05:37:00,60.9,55.4,29.38,SSE,151,0.0,0.0,82,0.00,,FEW200,0.00,VWS V14.01,2013-04-30 10:37:00,
2013-04-30 05:42:00,60.9,55.4,29.38,SSE,151,0.0,0.0,82,0.00,,FEW200,0.00,VWS V14.01,2013-04-30 10:42:00,
2013-04-30 05:47:00,60.8,55.3,29.38,SSE,152,0.0,0.0,82,0.00,,FEW200,0.00,VWS V14.01,2013-04-30 10:47:00,
2013-04-30 05:52:00,60.7,55.2,29.39,SSE,151,0.0,0.0,82,0.00,,FEW200,0.00,VWS V14.01,2013-04-30 10:52:00,
2013-04-30 05:57:00,60.6,55.1,29.38,SSE,151,0.0,0.0,82,0.00,,FEW200,0.00,VWS V14.01,2013-04-30 10:57:00,
2013-04-30 06:02:00,60.5,55.0,29.39,SSE,151,0.0,0.0,82,0.00,,FEW200,0.00,VWS V14.01,2013-04-30 11:02:00,
2013-04-30 06:07:00,60.6,55.1,29.39,SSE,151,0.0,0.0,82,0.00,,FEW200,0.00,VWS V14.01,2013-04-30 11:07:00,
2013-04-30 06:12:00,60.6,55.1,29.39,SSE,151,0.0,0.0,82,0.00,,FEW200,0.00,VWS V14.01,2013-04-30 11:12:00,
2013-04-30 06:17:00,60.8,55.3,29.39,SSE,151,0.0,0.0,82,0.00,,FEW200,0.00,VWS V14.01,2013-04-30 11:17:00,
2013-04-30 06:22:00,60.9,55.0,29.39,SSE,151,0.0,0.0,81,0.00,,FEW200,0.00,VWS V14.01,2013-04-30 11:22:00,
2013-04-30 06:27:00,61.1,55.2,29.40,SSE,151,0.0,0.0,81,0.00,,FEW200,0.00,VWS V14.01,2013-04-30 11:27:00,
2013-04-30 06:32:00,61.2,55.3,29.39,SSE,151,0.0,0.0,81,0.00,,FEW200,0.00,VWS V14.01,2013-04-30 11:32:00,
2013-04-30 06:37:00,61.3,55.4,29.40,SSE,151,0.0,0.0,81,0.00,,SCT200,0.00,VWS V14.01,2013-04-30 11:37:00,
2013-04-30 06:42:00,61.4,55.2,29.40,SSE,151,0.0,0.0,80,0.00,,SCT200,0.00,VWS V14.01,2013-04-30 11:42:00,
2013-04-30 06:47:00,61.5,55.3,29.40,SSE,151,0.0,0.0,80,0.00,,SCT200,0.00,VWS V14.01,2013-04-30 11:47:00,
2013-04-30 06:52:00,61.7,55.5,29.41,SSE,151,0.0,0.0,80,0.00,,SCT200,0.00,VWS V14.01,2013-04-30 11:52:00,
2013-04-30 06:57:00,61.9,55.7,29.41,SSE,151,0.0,0.0,80,0.00,,SCT200,0.00,VWS V14.01,2013-04-30 11:57:00,
2013-04-30 07:02:00,62.1,55.5,29.41,SSE,152,0.0,0.0,79,0.00,,SCT200,0.00,VWS V14.01,2013-04-30 12:02:00,
2013-04-30 07:07:00,62.3,55.7,29.41,SSE,151,0.0,0.0,79,0.00,,SCT200,0.00,VWS V14.01,2013-04-30 12:07:00,
2013-04-30 07:12:00,62.5,55.6,29.41,SSE,151,0.0,0.0,78,0.00,,SCT200,0.00,VWS V14.01,2013-04-30 12:12:00,
2013-04-30 07:17:00,62.7,55.8,29.41,SSE,151,0.0,0.0,78,0.00,,SCT200,0.00,VWS V14.01,2013-04-30 12:17:00,
2013-04-30 07:22:00,62.9,55.9,29.41,SSE,151,0.0,0.0,78,0.00,,SCT200,0.00,VWS V14.01,2013-04-30 12:22:00,
2013-04-30 07:27:00,63.1,55.8,29.41,SSE,151,0.0,0.0,77,0.00,,SCT200,0.00,VWS V14.01,2013-04-30 12:27:00,
2013-04-30 07:32:00,63.3,56.0,29.41,SSE,151,0.0,0.0,77,0.00,,SCT200,0.00,VWS V14.01,2013-04-30 12:32:00,
2013-04-30 07:37:00,63.6,55.9,29.42,SSE,151,0.0,0.0,76,0.00,,SCT200,0.00,VWS V14.01,2013-04-30 12:37:00,
2013-04-30 07:42:00,63.9,56.2,29.41,SSE,151,0.0,0.0,76,0.00,,SCT200,0.00,VWS V14.01,2013-04-30 12:42:00,
2013-04-30 07:47:00,64.2,56.1,29.41,SSE,151,0.0,0.0,75,0.00,,SCT200,0.00,VWS V14.01,2013-04-30 12:47:00,
2013-04-30 07:52:00,64.5,56.4,29.42,SSE,151,0.0,0.0,75,0.00,,SCT200,0.00,VWS V14.01,2013-04-30 12:52:00,
2013-04-30 07:57:00,64.8,56.3,29.42,SSE,151,0.0,0.0,74,0.00,,SCT200,0.00,VWS V14.01,2013-04-30 12:57:00,
2013-04-30 08:02:00,65.1,56.6,29.42,SSE,151,0.0,0.0,74,0.00,,SCT200,0.00,VWS V14.01,2013-04-30 13:02:00,
2013-04-30 08:07:00,65.4,56.5,29.42,SSE,152,0.0,0.0,73,0.00,,BKN250,0.00,VWS V14.01,2013-04-30 13:07:00,
2013-04-30 08:12:00,65.7,56.8,29.42,SSE,152,0.0,2.0,73,0.00,,BKN250,0.00,VWS V14.01,2013-04-30 13:12:00,
2013-04-30 08:17:00,66.0,57.1,29.42,SSE,152,0.0,3.0,73,0.00,,BKN250,0.00,VWS V14.01,2013-04-30 13:17:00,
2013-04-30 08:22:00,66.4,57.1,29.43,SSE,152,0.0,2.0,72,0.00,,BKN250,0.00,VWS V14.01,2013-04-30 13:22:00,
2013-04-30 08:27:00,66.6,56.9,29.42,SSE,152,0.0,1.0,71,0.00,,BKN250,0.00,VWS V14.01,2013-04-30 13:27:00,
2013-04-30 08:32:00,66.9,57.2,29.43,SSE,152,0.0,1.0,71,0.00,,BKN250,0.00,VWS V14.01,2013-04-30 13:32:00,
2013-04-30 08:37:00,67.3,57.6,29.42,SE,137,0.0,1.0,71,0.00,,BKN250,0.00,VWS V14.01,2013-04-30 13:37:00,
2013-04-30 08:42:00,67.7,57.6,29.43,SE,137,0.0,1.0,70,0.00,,BKN250,0.00,VWS V14.01,2013-04-30 13:42:00,
2013-04-30 08:47:00,67.9,57.8,29.43,SE,137,0.0,0.0,70,0.00,,BKN250,0.00,VWS V14.01,2013-04-30 13:47:00,
2013-04-30 08:52:00,68.1,57.6,29.43,SE,137,0.0,1.0,69,0.00,,BKN250,0.00,VWS V14.01,2013-04-30 13:52:00,
2013-04-30 08:57:00,68.3,57.8,29.43,SE,137,0.0,1.0,69,0.00,,BKN250,0.00,VWS V14.01,2013-04-30 13:57:00,
2013-04-30 09:02:00,68.6,58.0,29.43,SE,137,0.0,1.0,69,0.00,,BKN250,0.00,VWS V14.01,2013-04-30 14:02:00,
2013-04-30 09:07:00,68.9,57.9,29.44,SE,137,0.0,1.0,68,0.00,,BKN250,0.00,VWS V14.01,2013-04-30 14:07:00,
2013-04-30 09:12:00,69.1,58.1,29.43,SE,137,0.0,1.0,68,0.00,,BKN250,0.00,VWS V14.01,2013-04-30 14:12:00,
2013-04-30 09:17:00,69.3,57.9,29.43,SE,137,0.0,1.0,67,0.00,,BKN250,0.00,VWS V14.01,2013-04-30 14:17:00,
2013-04-30 09:22:00,69.5,58.1,29.43,SE,137,0.0,1.0,67,0.00,,BKN250,0.00,VWS V14.01,2013-04-30 14:22:00,
2013-04-30 09:27:00,69.8,57.9,29.43,SE,137,0.0,1.0,66,0.00,,BKN250,0.00,VWS V14.01,2013-04-30 14:27:00,
2013-04-30 09:32:00,70.2,58.7,29.43,SE,137,0.0,0.0,67,0.00,,BKN250,0.00,VWS V14.01,2013-04-30 14:32:00,
2013-04-30 09:41:00,70.8,58.9,29.43,SE,137,0.0,1.0,66,0.00,,BKN250,0.00,VWS V14.01,2013-04-30 14:41:00,
2013-04-30 09:46:00,71.0,58.7,29.43,SE,138,0.0,1.0,65,0.00,,BKN250,0.00,VWS V14.01,2013-04-30 14:46:00,
2013-04-30 09:51:00,71.3,58.9,29.43,SE,138,0.0,0.0,65,0.00,,BKN250,0.00,VWS V14.01,2013-04-30 14:51:00,
2013-04-30 09:56:00,71.6,59.2,29.43,SE,138,0.0,1.0,65,0.00,,BKN250,0.00,VWS V14.01,2013-04-30 14:56:00,
2013-04-30 10:01:00,71.8,59.0,29.43,SE,138,0.0,1.0,64,0.00,,BKN250,0.00,VWS V14.01,2013-04-30 15:01:00,
2013-04-30 10:06:00,71.9,59.5,29.44,SE,138,0.0,2.0,65,0.00,,BKN250,0.00,VWS V14.01,2013-04-30 15:06:00,
2013-04-30 10:11:00,72.2,59.8,29.43,SE,138,0.0,1.0,65,0.00,,BKN250,0.00,VWS V14.01,2013-04-30 15:11:00,
2013-04-30 10:16:00,72.5,59.6,29.43,SE,138,0.0,2.0,64,0.00,,BKN250,0.00,VWS V14.01,2013-04-30 15:16:00,
2013-04-30 10:21:00,72.7,60.3,29.44,SE,139,0.0,1.0,65,0.00,,BKN250,0.00,VWS V14.01,2013-04-30 15:21:00,
2013-04-30 10:26:00,72.9,60.5,29.43,WSW,239,0.0,4.0,65,0.00,,BKN250,0.00,VWS V14.01,2013-04-30 15:26:00,
2013-04-30 10:31:00,73.2,60.7,29.43,WSW,253,0.0,2.0,65,0.00,,BKN250,0.00,VWS V14.01,2013-04-30 15:31:00,
2013-04-30 10:36:00,73.4,60.5,29.43,WSW,253,0.0,3.0,64,0.00,,BKN250,0.00,VWS V14.01,2013-04-30 15:36:00,
2013-04-30 10:41:00,73.7,60.8,29.43,WSW,253,0.0,2.0,64,0.00,,BKN250,0.00,VWS V14.01,2013-04-30 15:41:00,
2013-04-30 10:46:00,74.0,60.6,29.43,WSW,253,0.0,1.0,63,0.00,,BKN250,0.00,VWS V14.01,2013-04-30 15:46:00,
2013-04-30 10:51:00,74.4,60.1,29.43,WSW,253,0.0,3.0,61,0.00,,BKN250,0.00,VWS V14.01,2013-04-30 15:51:00,
2013-04-30 10:56:00,74.9,60.6,29.43,WSW,253,0.0,1.0,61,0.00,,BKN250,0.00,VWS V14.01,2013-04-30 15:56:00,
2013-04-30 11:01:00,75.2,60.4,29.43,WSW,253,0.0,3.0,60,0.00,,BKN250,0.00,VWS V14.01,2013-04-30 16:01:00,
2013-04-30 11:06:00,75.3,60.5,29.44,WSW,251,3.0,4.0,60,0.00,,BKN250,0.00,VWS V14.01,2013-04-30 16:06:00,
2013-04-30 11:11:00,75.4,60.6,29.43,WSW,250,0.0,4.0,60,0.00,,BKN250,0.00,VWS V14.01,2013-04-30 16:11:00,
2013-04-30 11:16:00,75.9,60.6,29.44,WSW,249,0.0,4.0,59,0.00,,BKN250,0.00,VWS V14.01,2013-04-30 16:16:00,
2013-04-30 11:21:00,76.3,60.9,29.43,WSW,249,1.0,3.0,59,0.00,,BKN250,0.00,VWS V14.01,2013-04-30 16:21:00,
2013-04-30 11:26:00,76.6,61.7,29.43,WSW,249,0.0,1.0,60,0.00,,BKN250,0.00,VWS V14.01,2013-04-30 16:26:00,
2013-04-30 11:31:00,77.0,61.6,29.43,WSW,249,0.0,2.0,59,0.00,,BKN250,0.00,VWS V14.01,2013-04-30 16:31:00,
2013-04-30 11:36:00,77.3,61.4,29.42,WSW,249,0.0,2.0,58,0.00,,BKN250,0.00,VWS V14.01,2013-04-30 16:36:00,
2013-04-30 11:41:00,77.6,61.2,29.43,SSE,157,0.0,4.0,57,0.00,,BKN250,0.00,VWS V14.01,2013-04-30 16:41:00,
2013-04-30 11:51:00,78.2,60.7,29.43,East,96,0.0,6.0,55,0.00,,BKN250,0.00,VWS V14.01,2013-04-30 16:51:00,
2013-04-30 11:56:00,78.6,61.6,29.42,ESE,115,0.0,3.0,56,0.00,,BKN250,0.00,VWS V14.01,2013-04-30 16:56:00,
2013-04-30 12:01:00,79.0,61.0,29.42,SE,127,0.0,6.0,54,0.00,,BKN250,0.00,VWS V14.01,2013-04-30 17:01:00,
2013-04-30 12:06:00,79.3,61.2,29.42,ESE,122,0.0,7.0,54,0.00,,BKN250,0.00,VWS V14.01,2013-04-30 17:06:00,
2013-04-30 12:11:00,79.6,61.0,29.42,SE,142,0.0,5.0,53,0.00,,BKN250,0.00,VWS V14.01,2013-04-30 17:11:00,
2013-04-30 12:16:00,80.0,60.8,29.42,ESE,119,0.0,6.0,52,0.00,,BKN250,0.00,VWS V14.01,2013-04-30 17:16:00,
2013-04-30 12:21:00,80.3,60.5,29.41,East,96,0.0,9.0,51,0.00,,BKN250,0.00,VWS V14.01,2013-04-30 17:21:00,
2013-04-30 12:26:00,80.5,59.6,29.41,ESE,119,0.0,3.0,49,0.00,,BKN250,0.00,VWS V14.01,2013-04-30 17:26:00,
2013-04-30 12:31:00,80.6,60.3,29.41,East,93,0.0,8.0,50,0.00,,BKN250,0.00,VWS V14.01,2013-04-30 17:31:00,
2013-04-30 12:36:00,81.0,60.6,29.41,ESE,106,0.0,1.0,50,0.00,,SCT250,0.00,VWS V14.01,2013-04-30 17:36:00,
2013-04-30 12:41:00,81.5,60.5,29.40,South,170,0.0,4.0,49,0.00,,SCT250,0.00,VWS V14.01,2013-04-30 17:41:00,
2013-04-30 12:46:00,81.9,60.3,29.40,East,93,0.0,6.0,48,0.00,,SCT250,0.00,VWS V14.01,2013-04-30 17:46:00,
2013-04-30 12:51:00,82.2,58.8,29.40,SE,136,0.0,3.0,45,0.00,,SCT250,0.00,VWS V14.01,2013-04-30 17:51:00,
2013-04-30 12:56:00,82.5,58.4,29.40,SW,220,0.0,3.0,44,0.00,,SCT250,0.00,VWS V14.01,2013-04-30 17:56:00,
2013-04-30 13:01:00,82.7,58.6,29.40,SSE,168,0.0,4.0,44,0.00,,SCT250,0.00,VWS V14.01,2013-04-30 18:01:00,
2013-04-30 13:06:00,83.1,57.7,29.40,South,174,6.0,6.0,42,0.00,,SCT250,0.00,VWS V14.01,2013-04-30 18:06:00,
2013-04-30 13:11:00,83.3,57.2,29.40,SSW,211,5.0,6.0,41,0.00,,SCT250,0.00,VWS V14.01,2013-04-30 18:11:00,
2013-04-30 13:16:00,83.6,56.8,29.40,SW,235,0.0,6.0,40,0.00,,SCT250,0.00,VWS V14.01,2013-04-30 18:16:00,
2013-04-30 13:21:00,84.0,56.4,29.40,South,189,0.0,5.0,39,0.00,,SCT250,0.00,VWS V14.01,2013-04-30 18:21:00,
2013-04-30 13:26:00,84.3,56.0,29.39,South,181,0.0,5.0,38,0.00,,SCT250,0.00,VWS V14.01,2013-04-30 18:26:00,
2013-04-30 13:31:00,84.5,56.1,29.40,NNW,341,0.0,6.0,38,0.00,,SCT250,0.00,VWS V14.01,2013-04-30 18:31:00,
2013-04-30 13:37:00,84.8,55.7,29.39,WNW,284,3.0,7.0,37,0.00,,SCT250,0.00,VWS V14.01,2013-04-30 18:37:00,
2013-04-30 13:47:00,84.8,54.9,29.40,SSE,158,2.0,4.0,36,0.00,,SCT250,0.00,VWS V14.01,2013-04-30 18:47:00,
2013-04-30 13:52:00,84.8,55.7,29.39,ESE,120,0.0,5.0,37,0.00,,SCT250,0.00,VWS V14.01,2013-04-30 18:52:00,
2013-04-30 13:57:00,84.8,56.4,29.39,SW,227,1.0,7.0,38,0.00,,SCT250,0.00,VWS V14.01,2013-04-30 18:57:00,
2013-04-30 14:02:00,85.1,55.2,29.39,West,269,3.0,7.0,36,0.00,,SCT250,0.00,VWS V14.01,2013-04-30 19:02:00,
2013-04-30 14:07:00,85.2,54.5,29.39,West,272,1.0,3.0,35,0.00,,SCT250,0.00,VWS V14.01,2013-04-30 19:07:00,
2013-04-30 14:12:00,85.3,53.0,29.39,SE,142,2.0,6.0,33,0.00,,SCT250,0.00,VWS V14.01,2013-04-30 19:12:00,
2013-04-30 14:17:00,85.4,53.0,29.39,NW,308,0.0,5.0,33,0.00,,SCT250,0.00,VWS V14.01,2013-04-30 19:17:00,
2013-04-30 14:22:00,85.4,53.0,29.39,West,275,0.0,10.0,33,0.00,,SCT250,0.00,VWS V14.01,2013-04-30 19:22:00,
2013-04-30 14:27:00,85.2,53.7,29.39,West,263,0.0,4.0,34,0.00,,SCT250,0.00,VWS V14.01,2013-04-30 19:27:00,
2013-04-30 14:32:00,85.4,53.0,29.39,SE,140,1.0,7.0,33,0.00,,SCT250,0.00,VWS V14.01,2013-04-30 19:32:00,
2013-04-30 14:37:00,85.6,53.2,29.39,SW,216,0.0,10.0,33,0.00,,SCT250,0.00,VWS V14.01,2013-04-30 19:37:00,
2013-04-30 14:42:00,85.8,54.2,29.39,SW,215,2.0,4.0,34,0.00,,SCT250,0.00,VWS V14.01,2013-04-30 19:42:00,
2013-04-30 14:47:00,85.9,54.3,29.39,SW,218,1.0,4.0,34,0.00,,SCT250,0.00,VWS V14.01,2013-04-30 19:47:00,
2013-04-30 14:52:00,85.9,53.5,29.39,SSE,163,1.0,6.0,33,0.00,,SCT250,0.00,VWS V14.01,2013-04-30 19:52:00,
2013-04-30 14:57:00,85.7,53.3,29.39,SSE,148,0.0,6.0,33,0.00,,SCT250,0.00,VWS V14.01,2013-04-30 19:57:00,
2013-04-30 15:02:00,85.7,52.5,29.39,WSW,241,1.0,7.0,32,0.00,,SCT250,0.00,VWS V14.01,2013-04-30 20:02:00,
2013-04-30 15:07:00,85.9,52.7,29.39,West,280,2.0,6.0,32,0.00,,SCT250,0.00,VWS V14.01,2013-04-30 20:07:00,
2013-04-30 15:12:00,85.9,52.7,29.39,South,171,1.0,5.0,32,0.00,,SCT250,0.00,VWS V14.01,2013-04-30 20:12:00,
2013-04-30 15:17:00,86.2,52.9,29.38,WSW,246,2.0,10.0,32,0.00,,SCT250,0.00,VWS V14.01,2013-04-30 20:17:00,
2013-04-30 15:22:00,86.5,53.2,29.39,SSE,154,2.0,7.0,32,0.00,,SCT250,0.00,VWS V14.01,2013-04-30 20:22:00,
2013-04-30 15:27:00,86.7,52.5,29.38,South,175,4.0,7.0,31,0.00,,SCT250,0.00,VWS V14.01,2013-04-30 20:27:00,
2013-04-30 15:32:00,86.7,52.5,29.38,SSW,203,0.0,6.0,31,0.00,,SCT250,0.00,VWS V14.01,2013-04-30 20:32:00,
2013-04-30 15:37:00,87.2,52.0,29.39,SW,223,1.0,5.0,30,0.00,,SCT250,0.00,VWS V14.01,2013-04-30 20:37:00,
2013-04-30 15:42:00,87.5,53.2,29.38,SSW,206,3.0,5.0,31,0.00,,SCT250,0.00,VWS V14.01,2013-04-30 20:42:00,
2013-04-30 15:47:00,87.5,54.0,29.38,SSW,200,4.0,4.0,32,0.00,,SCT250,0.00,VWS V14.01,2013-04-30 20:47:00,
2013-04-30 15:52:00,87.3,53.0,29.38,SSE,157,2.0,5.0,31,0.00,,SCT250,0.00,VWS V14.01,2013-04-30 20:52:00,
2013-04-30 15:57:00,87.5,53.2,29.38,SSE,158,0.0,4.0,31,0.00,,SCT250,0.00,VWS V14.01,2013-04-30 20:57:00,
2013-04-30 16:02:00,87.7,54.2,29.38,SSE,162,1.0,5.0,32,0.00,,SCT250,0.00,VWS V14.01,2013-04-30 21:02:00,
2013-04-30 16:07:00,87.8,56.0,29.38,SSE,159,3.0,6.0,34,0.00,,SCT250,0.00,VWS V14.01,2013-04-30 21:07:00,
2013-04-30 16:12:00,87.6,58.9,29.38,ESE,112,2.0,5.0,38,0.00,,SCT250,0.00,VWS V14.01,2013-04-30 21:12:00,
2013-04-30 16:17:00,87.2,58.5,29.38,SSE,156,1.0,7.0,38,0.00,,SCT250,0.00,VWS V14.01,2013-04-30 21:17:00,
2013-04-30 16:22:00,86.8,59.6,29.38,South,181,3.0,5.0,40,0.00,,SCT250,0.00,VWS V14.01,2013-04-30 21:22:00,
2013-04-30 16:27:00,86.6,59.4,29.38,East,91,4.0,8.0,40,0.00,,SCT250,0.00,VWS V14.01,2013-04-30 21:27:00,
2013-04-30 16:32:00,86.4,59.9,29.38,ESE,105,0.0,13.0,41,0.00,,SCT250,0.00,VWS V14.01,2013-04-30 21:32:00,
2013-04-30 16:37:00,86.4,59.9,29.38,SE,146,2.0,6.0,41,0.00,,BKN250,0.00,VWS V14.01,2013-04-30 21:37:00,
2013-04-30 16:42:00,86.0,60.9,29.39,SE,124,4.0,7.0,43,0.00,,BKN250,0.00,VWS V14.01,2013-04-30 21:42:00,
2013-04-30 16:47:00,85.9,60.2,29.39,SE,135,0.0,5.0,42,0.00,,BKN250,0.00,VWS V14.01,2013-04-30 21:47:00,
2013-04-30 16:52:00,85.7,60.0,29.39,SE,127,4.0,6.0,42,0.00,,BKN250,0.00,VWS V14.01,2013-04-30 21:52:00,
2013-04-30 16:57:00,85.6,60.6,29.39,East,91,1.0,11.0,43,0.00,,BKN250,0.00,VWS V14.01,2013-04-30 21:57:00,
2013-04-30 17:02:00,85.5,59.8,29.39,SE,130,3.0,9.0,42,0.00,,BKN250,0.00,VWS V14.01,2013-04-30 22:02:00,
2013-04-30 17:07:00,85.0,59.4,29.39,SE,134,0.0,8.0,42,0.00,,BKN250,0.00,VWS V14.01,2013-04-30 22:07:00,
2013-04-30 17:12:00,84.8,59.2,29.39,SSE,160,4.0,7.0,42,0.00,,BKN250,0.00,VWS V14.01,2013-04-30 22:12:00,
2013-04-30 17:17:00,84.7,59.8,29.39,SSE,149,0.0,6.0,43,0.00,,BKN250,0.00,VWS V14.01,2013-04-30 22:17:00,
2013-04-30 17:22:00,84.4,59.5,29.39,ESE,108,1.0,8.0,43,0.00,,BKN250,0.00,VWS V14.01,2013-04-30 22:22:00,
2013-04-30 17:27:00,84.3,59.4,29.40,South,171,3.0,7.0,43,0.00,,BKN250,0.00,VWS V14.01,2013-04-30 22:27:00,
2013-04-30 17:32:00,84.3,59.4,29.39,SSE,155,5.0,6.0,43,0.00,,BKN250,0.00,VWS V14.01,2013-04-30 22:32:00,
2013-04-30 17:37:00,84.0,58.5,29.39,SE,139,0.0,8.0,42,0.00,,BKN250,0.00,VWS V14.01,2013-04-30 22:37:00,
2013-04-30 17:42:00,83.5,58.7,29.40,SE,144,4.0,9.0,43,0.00,,BKN250,0.00,VWS V14.01,2013-04-30 22:42:00,
2013-04-30 17:47:00,83.2,58.4,29.40,SSE,150,5.0,8.0,43,0.00,,BKN250,0.00,VWS V14.01,2013-04-30 22:47:00,
2013-04-30 17:52:00,83.2,59.0,29.40,SE,128,2.0,6.0,44,0.00,,BKN250,0.00,VWS V14.01,2013-04-30 22:52:00,
2013-04-30 17:57:00,83.0,58.2,29.40,SSE,150,0.0,6.0,43,0.00,,BKN250,0.00,VWS V14.01,2013-04-30 22:57:00,
2013-04-30 18:02:00,82.7,58.6,29.39,SSE,157,2.0,7.0,44,0.00,,BKN250,0.00,VWS V14.01,2013-04-30 23:02:00,
2013-04-30 18:07:00,82.5,59.0,29.40,South,185,2.0,6.0,45,0.00,,BKN250,0.00,VWS V14.01,2013-04-30 23:07:00,
2013-04-30 18:12:00,82.4,59.0,29.40,South,183,3.0,4.0,45,0.00,,BKN250,0.00,VWS V14.01,2013-04-30 23:12:00,
2013-04-30 18:17:00,82.1,58.7,29.40,SSE,156,2.0,6.0,45,0.00,,BKN250,0.00,VWS V14.01,2013-04-30 23:17:00,
2013-04-30 18:22:00,81.7,58.9,29.40,SSE,148,0.0,6.0,46,0.00,,BKN250,0.00,VWS V14.01,2013-04-30 23:22:00,
2013-04-30 18:27:00,81.4,58.7,29.40,SE,145,1.0,6.0,46,0.00,,BKN250,0.00,VWS V14.01,2013-04-30 23:27:00,
2013-04-30 18:32:00,81.2,59.1,29.40,SE,144,0.0,2.0,47,0.00,,BKN250,0.00,VWS V14.01,2013-04-30 23:32:00,
2013-04-30 18:37:00,81.0,58.9,29.40,SSE,152,0.0,5.0,47,0.00,,BKN250,0.00,VWS V14.01,2013-04-30 23:37:00,
2013-04-30 18:42:00,80.8,59.3,29.40,SSE,155,3.0,5.0,48,0.00,,BKN250,0.00,VWS V14.01,2013-04-30 23:42:00,
2013-04-30 18:47:00,80.5,59.0,29.40,SSE,155,2.0,6.0,48,0.00,,BKN250,0.00,VWS V14.01,2013-04-30 23:47:00,
2013-04-30 18:52:00,80.2,59.3,29.41,South,171,0.0,7.0,49,0.00,,BKN250,0.00,VWS V14.01,2013-04-30 23:52:00,
2013-04-30 18:57:00,79.9,59.0,29.41,SSE,160,1.0,4.0,49,0.00,,BKN250,0.00,VWS V14.01,2013-04-30 23:57:00,
2013-04-30 19:02:00,79.6,58.8,29.41,SSE,156,1.0,5.0,49,0.00,,BKN250,0.00,VWS V14.01,2013-05-01 00:02:00,
2013-04-30 19:07:00,79.3,58.5,29.41,SE,141,3.0,4.0,49,0.00,,BKN250,0.00,VWS V14.01,2013-05-01 00:07:00,
2013-04-30 19:12:00,79.0,58.8,29.42,SSE,160,0.0,6.0,50,0.00,,BKN250,0.00,VWS V14.01,2013-05-01 00:12:00,
2013-04-30 19:17:00,78.8,58.6,29.41,SSE,151,0.0,6.0,50,0.00,,BKN250,0.00,VWS V14.01,2013-05-01 00:17:00,
2013-04-30 19:22:00,78.6,58.4,29.42,SSE,152,0.0,4.0,50,0.00,,BKN250,0.00,VWS V14.01,2013-05-01 00:22:00,
2013-04-30 19:27:00,78.4,58.8,29.42,SSE,155,0.0,4.0,51,0.00,,BKN250,0.00,VWS V14.01,2013-05-01 00:27:00,
2013-04-30 19:32:00,78.2,58.6,29.42,SE,144,0.0,6.0,51,0.00,,BKN250,0.00,VWS V14.01,2013-05-01 00:32:00,
2013-04-30 19:41:00,77.7,58.7,29.43,SSE,149,0.0,2.0,52,0.00,,BKN250,0.00,VWS V14.01,2013-05-01 00:41:00,
2013-04-30 19:46:00,77.4,58.4,29.43,SE,130,2.0,5.0,52,0.00,,BKN250,0.00,VWS V14.01,2013-05-01 00:46:00,
2013-04-30 19:51:00,77.2,58.8,29.43,SE,130,0.0,2.0,53,0.00,,BKN250,0.00,VWS V14.01,2013-05-01 00:51:00,
2013-04-30 19:56:00,76.9,58.5,29.43,SE,131,0.0,2.0,53,0.00,,BKN250,0.00,VWS V14.01,2013-05-01 00:56:00,
2013-04-30 20:01:00,76.7,58.3,29.44,SE,131,0.0,5.0,53,0.00,,BKN250,0.00,VWS V14.01,2013-05-01 01:01:00,
2013-04-30 20:06:00,76.5,58.1,29.43,SE,143,0.0,5.0,53,0.00,,BKN250,0.00,VWS V14.01,2013-05-01 01:06:00,
2013-04-30 20:11:00,76.2,57.8,29.43,SE,145,2.0,4.0,53,0.00,,BKN250,0.00,VWS V14.01,2013-05-01 01:11:00,
2013-04-30 20:16:00,76.1,58.3,29.43,SE,132,0.0,7.0,54,0.00,,BKN250,0.00,VWS V14.01,2013-05-01 01:16:00,
2013-04-30 20:21:00,75.9,58.1,29.44,SE,141,1.0,5.0,54,0.00,,BKN250,0.00,VWS V14.01,2013-05-01 01:21:00,
2013-04-30 20:26:00,75.7,57.9,29.44,SE,143,0.0,6.0,54,0.00,,BKN250,0.00,VWS V14.01,2013-05-01 01:26:00,
2013-04-30 20:31:00,75.5,58.2,29.44,SSE,149,0.0,5.0,55,0.00,,BKN250,0.00,VWS V14.01,2013-05-01 01:31:00,
2013-04-30 20:36:00,75.3,58.0,29.44,SSE,148,1.0,3.0,55,0.00,,BKN250,0.00,VWS V14.01,2013-05-01 01:36:00,
2013-04-30 20:41:00,75.2,58.4,29.45,SSE,162,0.0,5.0,56,0.00,,BKN250,0.00,VWS V14.01,2013-05-01 01:41:00,
2013-04-30 20:46:00,75.0,58.3,29.46,SSE,162,0.0,4.0,56,0.00,,BKN250,0.00,VWS V14.01,2013-05-01 01:46:00,
2013-04-30 20:51:00,74.8,58.1,29.45,SSE,153,0.0,5.0,56,0.00,,BKN250,0.00,VWS V14.01,2013-05-01 01:51:00,
2013-04-30 20:56:00,74.7,58.5,29.46,SSE,153,0.0,3.0,57,0.00,,BKN250,0.00,VWS V14.01,2013-05-01 01:56:00,
2013-04-30 21:01:00,74.5,58.3,29.46,SSE,153,1.0,2.0,57,0.00,,BKN250,0.00,VWS V14.01,2013-05-01 02:01:00,
2013-04-30 21:06:00,74.3,58.6,29.46,SE,139,0.0,5.0,58,0.00,,BKN250,0.00,VWS V14.01,2013-05-01 02:06:00,
2013-04-30 21:11:00,74.2,58.5,29.47,SE,140,5.0,5.0,58,0.00,,BKN250,0.00,VWS V14.01,2013-05-01 02:11:00,
2013-04-30 21:16:00,74.0,58.8,29.47,SE,136,0.0,5.0,59,0.00,,BKN250,0.00,VWS V14.01,2013-05-01 02:16:00,
2013-04-30 21:21:00,73.9,58.7,29.47,SE,138,0.0,4.0,59,0.00,,BKN250,0.00,VWS V14.01,2013-05-01 02:21:00,
2013-04-30 21:26:00,73.8,58.6,29.47,SE,137,0.0,3.0,59,0.00,,BKN250,0.00,VWS V14.01,2013-05-01 02:26:00,
2013-04-30 21:31:00,73.6,58.9,29.47,SE,137,0.0,6.0,60,0.00,,BKN250,0.00,VWS V14.01,2013-05-01 02:31:00,
2013-04-30 21:36:00,73.4,58.7,29.48,SE,137,0.0,4.0,60,0.00,,FEW250,0.00,VWS V14.01,2013-05-01 02:36:00,
2013-04-30 21:41:00,73.3,58.6,29.48,SE,137,0.0,3.0,60,0.00,,FEW250,0.00,VWS V14.01,2013-05-01 02:41:00,
2013-04-30 21:46:00,73.2,58.5,29.48,SE,137,0.0,2.0,60,0.00,,FEW250,0.00,VWS V14.01,2013-05-01 02:46:00,
2013-04-30 21:51:00,73.0,58.3,29.48,SE,138,0.0,2.0,60,0.00,,FEW250,0.00,VWS V14.01,2013-05-01 02:51:00,
2013-04-30 21:56:00,72.9,58.2,29.48,SE,138,0.0,2.0,60,0.00,,FEW250,0.00,VWS V14.01,2013-05-01 02:56:00,
2013-04-30 22:01:00,72.8,57.7,29.48,SE,138,0.0,1.0,59,0.00,,FEW250,0.00,VWS V14.01,2013-05-01 03:01:00,
2013-04-30 22:06:00,72.7,57.6,29.49,SE,138,0.0,2.0,59,0.00,,FEW250,0.00,VWS V14.01,2013-05-01 03:06:00,
2013-04-30 22:11:00,72.8,57.7,29.48,SE,138,0.0,2.0,59,0.00,,FEW250,0.00,VWS V14.01,2013-05-01 03:11:00,
2013-04-30 22:16:00,72.7,57.1,29.49,SE,138,0.0,1.0,58,0.00,,FEW250,0.00,VWS V14.01,2013-05-01 03:16:00,
2013-04-30 22:21:00,72.8,57.2,29.49,SE,138,0.0,3.0,58,0.00,,FEW250,0.00,VWS V14.01,2013-05-01 03:21:00,
2013-04-30 22:26:00,72.8,56.7,29.49,SE,140,0.0,3.0,57,0.00,,FEW250,0.00,VWS V14.01,2013-05-01 03:26:00,
2013-04-30 22:31:00,72.9,57.3,29.49,SE,140,0.0,0.0,58,0.00,,FEW250,0.00,VWS V14.01,2013-05-01 03:31:00,
2013-04-30 22:36:00,72.9,56.8,29.49,SE,140,0.0,2.0,57,0.00,,FEW250,0.00,VWS V14.01,2013-05-01 03:36:00,
2013-04-30 22:41:00,72.9,56.8,29.49,SE,146,0.0,5.0,57,0.00,,FEW250,0.00,VWS V14.01,2013-05-01 03:41:00,
2013-04-30 22:46:00,72.8,56.7,29.49,SE,146,0.0,0.0,57,0.00,,FEW250,0.00,VWS V14.01,2013-05-01 03:46:00,
2013-04-30 22:51:00,72.7,57.1,29.49,SE,146,0.0,1.0,58,0.00,,FEW250,0.00,VWS V14.01,2013-05-01 03:51:00,
2013-04-30 22:56:00,72.5,56.9,29.49,SE,146,0.0,0.0,58,0.00,,FEW250,0.00,VWS V14.01,2013-05-01 03:56:00,
2013-04-30 23:01:00,72.2,56.6,29.49,SE,146,0.0,0.0,58,0.00,,FEW250,0.00,VWS V14.01,2013-05-01 04:01:00,
2013-04-30 23:06:00,72.1,57.0,29.50,SE,146,0.0,0.0,59,0.00,,FEW250,0.00,VWS V14.01,2013-05-01 04:06:00,
2013-04-30 23:11:00,71.9,56.8,29.50,SE,146,0.0,0.0,59,0.00,,FEW250,0.00,VWS V14.01,2013-05-01 04:11:00,
2013-04-30 23:16:00,71.8,56.7,29.50,SE,146,0.0,1.0,59,0.00,,FEW250,0.00,VWS V14.01,2013-05-01 04:16:00,
2013-04-30 23:21:00,71.6,57.0,29.49,SE,146,0.0,1.0,60,0.00,,FEW250,0.00,VWS V14.01,2013-05-01 04:21:00,
2013-04-30 23:26:00,71.5,56.9,29.49,SE,146,0.0,2.0,60,0.00,,FEW250,0.00,VWS V14.01,2013-05-01 04:26:00,
2013-04-30 23:31:00,71.3,56.7,29.49,SE,146,0.0,0.0,60,0.00,,FEW250,0.00,VWS V14.01,2013-05-01 04:31:00,
2013-04-30 23:37:00,71.1,57.0,29.49,SE,146,0.0,0.0,61,0.00,,CLR,0.00,VWS V14.01,2013-05-01 04:37:00,
2013-04-30 23:42:00,71.0,56.9,29.50,SE,146,0.0,0.0,61,0.00,,CLR,0.00,VWS V14.01,2013-05-01 04:42:00,
2013-04-30 23:47:00,70.8,56.7,29.49,SE,146,0.0,0.0,61,0.00,,CLR,0.00,VWS V14.01,2013-05-01 04:47:00,
2013-04-30 23:52:00,70.7,56.6,29.50,SE,146,0.0,0.0,61,0.00,,CLR,0.00,VWS V14.01,2013-05-01 04:52:00,
2013-04-30 23:57:00,70.6,57.0,29.50,SE,146,0.0,0.0,62,0.00,,CLR,0.00,VWS V14.01,2013-05-01 04:57:00,